Regional Weather Roundup
Issued by NWS

Home | Current Version | Previous Version | Text Only | Print | Product List | Glossary Off
Versions: 1 2 3 4 5 6 7 8 9 10 11 12 13 14 15 16 17 18 19 20 21 22 23 24 25 26 27 28 29 30 31 32 33 34 35 36 37 38 39 40 41 42 43 44 45 46 47 48 49 50

000
ASUS43 KMPX 180310
RWRMN
WEATHER ROUNDUP FOR MINNESOTA
NATIONAL WEATHER SERVICE TWIN CITIES/CHANHASSEN MN
900 PM CST TUE JAN 17 2017


NOTE: "FAIR" INDICATES FEW OR NO CLOUDS BELOW 12,000 FEET WITH NO
SIGNIFICANT WEATHER AND/OR OBSTRUCTIONS TO VISIBILITY. N/A MEANS
CURRENT SKY AND/OR WEATHER CONDITIONS ARE NOT AVAILABLE.

MNZ060>063-068>070-180400-
   Twin Cities Metro

CITY           SKY/WX    TMP DP  RH WIND       PRES   REMARKS
TWIN CITIES    CLOUDY    30  27  88 W12       30.00R WCI  20
ST PAUL        CLOUDY    32  31  96 W5        30.01R FOG     WCI  27
CRYSTAL        CLOUDY    30  25  81 SW6       29.98S WCI  24
BLAINE         PTCLDY    34  32  93 SW6       29.98R WCI  29
LAKEVILLE      CLOUDY    28  28 100 W7        30.00S FOG     WCI  21
EDEN PRAIRIE   CLOUDY    30  26  85 SW8       29.99R WCI  22
SOUTH ST PAUL  CLOUDY    32  32  99 W7        30.00R FOG     WCI  26
LAKE ELMO      CLOUDY    32  32 100 SW10      29.99S WCI  24
$$
MNZ001>005-007-008-013>017-022>024-027-028-180400-
   Northwest Minnesota

CITY           SKY/WX    TMP DP  RH WIND       PRES   REMARKS
BEMIDJI        CLOUDY    26  19  77 S9        29.78S WCI  16
HALLOCK        CLOUDY    19  18  93 S22       29.66F WCI   3
ROSEAU         CLOUDY    27  19  74 S17       29.67F WCI  14
WARROAD        CLOUDY    27  19  74 SW14G22   29.66F WCI  15
THIEF RVR FALL CLOUDY    23  18  81 SW22G28   29.74S WCI   8
CROOKSTON      CLOUDY    19  18  93 S20       29.77R WCI   4
FOSSTON        CLOUDY    25  19  80 S20       29.77R WCI  11
DETROIT LAKES  CLOUDY    21  18  86 S13       29.82F WCI   9
MOORHEAD       CLOUDY    18  16  93 S17       29.82S WCI   2
PARK RAPIDS    CLOUDY    16  10  77 S7        29.82F WCI   6
MAHNOMEN       FAIR      25  20  82 S20       29.78S WCI  11
$$
MNZ006-009>011-018-025>026-180400-
   North Central Minnesota

CITY           SKY/WX    TMP DP  RH WIND       PRES   REMARKS
BAUDETTE       CLOUDY    28  20  71 S15       29.70S WCI  16
FLAG ISLAND    CLOUDY    21  18  86 S15       29.63F WCI   8
INTL FALLS     CLOUDY    27  18  69 S6        29.74F WCI  20
WASKISH        CLOUDY    28  21  74 S8        29.74F WCI  20
BIG FORK       CLOUDY    27  18  69 S8        29.79F WCI  18
LONGVILLE      CLOUDY    25  16  68 S6        29.84F WCI  18
GRAND RAPIDS   CLOUDY    25  16  68 S8        29.85F WCI  16
CRANE LAKE     CLOUDY    25  18  74 S6        29.80F WCI  18
ORR            CLOUDY    25  16  68 CALM      29.77S
COOK           CLOUDY    27  18  69 S6        29.80F WCI  20
WALKER         FAIR      23  18  81 SW9       29.81F WCI  13
$$
MNZ012-019>021-037-180400-
   Northeast Minnesota

CITY           SKY/WX    TMP DP  RH WIND       PRES   REMARKS
DULUTH         CLOUDY    27  19  72 W9        29.86S WCI  18
ELY            CLOUDY    27  14  59 SW7       29.81F WCI  19
HIBBING        CLOUDY    23  12  62 S5        29.83F WCI  17
EVELETH        CLOUDY    25  11  56 SW6       29.85F WCI  18
DULUTH HARBOR  CLOUDY    28  25  86 CALM      29.91S
TWO HARBORS    CLOUDY    28  23  80 W8        29.85S WCI  20
SILVER BAY     CLOUDY    18  18 100 CALM      29.85R
GRAND MARAIS     N/A     34  31  88 W14       29.86F WCI  25
G MARAIS ARPRT FOG       27  23  86 SW7       29.81F VSB 1   WCI  19
$$
MNZ029>031-032-039>041-046>048-054>057-064-180400-
   West Central Minnesota

CITY           SKY/WX    TMP DP  RH WIND       PRES   REMARKS
FERGUS FALLS   CLOUDY    18  14  86 S13       29.92F WCI   4
WHEATON        CLOUDY    25  21  86 S10       29.90S WCI  15
MORRIS         CLOUDY    14  12  92 S12       29.90F WCI   0
ALEXANDRIA     CLOUDY    18  15  88 S10       29.90F WCI   6
ELBOW LAKE     FAIR      16  14  91 SE14      29.88F WCI   1
WADENA         CLOUDY    18  12  79 S8        29.86S WCI   7
GLENWOOD       CLOUDY    14  12  92 S9        29.91F WCI   2
APPLETON       CLOUDY    19  16  86 S5        29.93F WCI  13
ORTONVILLE     CLOUDY    19  16  86 CALM      29.91F
MADISON        CLOUDY    16  14  93 S8        29.94F WCI   5
WILLMAR        FAIR      14  12  92 CALM      29.96F
$$
MNZ033>034-036-042>043-049>051-058-059-180400-
   Central Minnesota

CITY           SKY/WX    TMP DP  RH WIND       PRES   REMARKS
ST CLOUD       CLOUDY    20  19  96 S6        29.95F FOG     WCI  12
SAUK CENTRE    FAIR      13  10  90 S8        29.92F WCI   2
PAYNESVILLE    CLOUDY    18  19 100 CALM      29.95F
AITKIN         CLOUDY    25  16  68 S6        29.88F WCI  18
PINE RIVER     CLOUDY    19  14  79 S6        29.89F WCI  11
BRAINERD       CLOUDY    22  16  78 S7        29.90S WCI  13
STAPLES        CLOUDY    16  12  86 S8        29.88F WCI   5
LONG PRAIRIE   FAIR      16  12  86 SE7       29.91F WCI   6
LITTLE FALLS   CLOUDY    19  16  86 S5        29.94S WCI  13
LITCHFIELD     CLOUDY    18  18 100 CALM      29.97F
BUFFALO        FOG       24  22  93 S6        29.99S VSB 3/4 WCI  17
MAPLE LAKE     CLOUDY    24  23  97 S6        29.98F FOG     WCI  16
HUTCHINSON     FOG       27  27  99 S6        29.99S VSB 1/4 WCI  21
$$
MNZ037-044-045-052-053-180400-
   East Central Minnesota

CITY           SKY/WX    TMP DP  RH WIND       PRES   REMARKS
PRINCETON      CLOUDY    28  25  86 SW6       29.96F WCI  22
MORA           CLOUDY    28  27  93 SW6       29.97R WCI  22
CAMBRIDGE      CLOUDY    30  25  80 S10       29.95S WCI  21
RUSH CITY      CLOUDY    30  28  93 SW8       29.96S WCI  23
MOOSE LAKE     CLOUDY    27  23  86 SW6       29.90S WCI  20
HINCKLEY       FOG       28  28 100 SW7       29.94S VSB 1   WCI  21
CLOQUET        CLOUDY    28  21  74 SW6       29.88S WCI  22
MCGREGOR       CLOUDY    23  18  80 S5        29.89F WCI  17
$$
MNZ071>073-080-081-089-090-097-098-180400-
   Southwest Minnesota

CITY           SKY/WX    TMP DP  RH WIND       PRES   REMARKS
MONTEVIDEO     CLOUDY    19  18  93 SW7       29.96F WCI  10
GRANITE FALLS  CLOUDY    22  20  93 SE7       29.98S WCI  13
CANBY            N/A     31  24  75 SW13G22   29.94F WCI  21
MARSHALL       CLOUDY    25  20  81 SW5       29.96S WCI  19
REDWOOD FALLS  CLOUDY    20  17  88 S6        29.97F WCI  12
OLIVIA         CLOUDY    21  19  93 S6        29.97S FOG     WCI  14
PIPESTONE      CLOUDY    25  25 100 SW12      29.96F WCI  14
WINDOM         CLOUDY    27  25  93 SW7       29.98S WCI  19
WORTHINGTON    CLOUDY    26  25  96 SW14      29.99R WCI  14
JACKSON        CLOUDY    27  25  93 SW6       30.00R WCI  20
TRACY          CLOUDY    29  25  85 SW18      29.96S WCI  16
SLAYTON        CLOUDY    26  24  94 SW13      29.97S WCI  14
$$
MNZ065>067-074>077-082>085-091>093-180400-
   South Central Minnesota

CITY           SKY/WX    TMP DP  RH WIND       PRES   REMARKS
MANKATO        PTCLDY    29  28  96 S8        30.00F FOG     WCI  21
NEW ULM        CLOUDY    25  23  93 CALM      29.99S
ST JAMES       CLOUDY    27  25  93 S6        30.01S WCI  20
GLENCOE        CLOUDY    31  31 100 S9        29.98S FOG     WCI  23
FARIBAULT      CLOUDY    28  28 100 S8        30.01S FOG     WCI  20
OWATONNA       CLOUDY    28  28 100 SW8       30.01F FOG     WCI  20
WASECA         CLOUDY    30  30 100 SW10      30.02F FOG     WCI  21
ALBERT LEA     CLOUDY    30  30 100 CALM      30.01S
$$
MNZ078>079-086>088-094>096-180400-
   Southeast Minnesota

CITY           SKY/WX    TMP DP  RH WIND       PRES   REMARKS
ROCHESTER      FOG       31  31 100 W10       30.01R VSB 3/4 WCI  22
RED WING       CLOUDY    34  30  86 W6        30.01S WCI  29
STANTON        CLOUDY    32  31  95 SW9       29.99S FOG     WCI  25
DODGE CENTER   FOG       30  30 100 CALM      30.00S VSB 1/4
WINONA         CLOUDY    34  32  93 W7        30.02R WCI  28
AUSTIN         FOG       30  28  93 SW7       30.02R VSB 1/4 WCI  23
PRESTON        FOG       31  31  96 W12       30.01S VSB 3/4 WCI  22
$$
ABBREVIATIONS USED IN REMARKS
   TC - TEMPERATURES IN CELSIUS
  WCI - WIND CHILL INDEX
   HX - HEAT INDEX
  VSB - VISIBILITY
$$



USA.gov is the U.S. government's official web portal to all federal, state and local government web resources and services.